ARIANE 1 DEB

Satellite information

Favourite Embed

Satellite Type and Status

DEBRISIN ORBIT

Key statistics

Satellite ARIANE 1 DEB at a glance.

Uptime

14489

Days in orbit

Revolutions

≈ 14.8

Per day

Orbit

SSO

Sun Synchronous Orbit

Inclination

99.1

Latest

Satellite identification and parameters

Extended collection of information and parameters for ARIANE 1 DEB.

Object identification

Identified? True

Debris? True

Object name: ARIANE 1 DEB

International designator: 1986-019FQ

Object number (NORAD): 17429

Object ID (CCSDS): 17429

Country: FRANCE (FR)

Current information (Y/N): Y

RCS size: SMALL

Orbital parameters

Period: 97.375 minutes

Inclination: 99.0606 deg

SMA: 7011.209 km

Apoapsis: 660.513 km

Periapsis: 605.634 km

RAAN: 175.45 deg

Eccentricy: 0.0039136

Argument of periapsis: 321.3568 deg

Mean anomaly: 38.4841 deg

Mean motion: 14.78813607 rev/day

Mean motion (dot): 0.00014666 rev/day2

B* drag term: 0.0019736161 1/REarth

Two-line elements (TLE)

Creation date: Oct. 23, 2025, 2:46 a.m.

Reference frame: TEME

Reference center: EARTH

Epoch: Oct. 22, 2025, 3:10 p.m. UTC

TLE line 0: 0 ARIANE 1 DEB

TLE line 1: 1 17429U 86019FQ 25295.63200250 .00014666 00000-0 19736-2 0 9999

TLE line 2: 2 17429 99.0606 175.4500 0039136 321.3568 38.4841 14.78813607 36863

Live tracking on map

Real-time ground track for satellite ARIANE 1 DEB.

In-orbit conjunctions

A list of the most updated potential collisions computed for object ARIANE 1 DEB.

Target Orbit TCA Probability of collision Miss distance Type
CZ-6A DEB LEO 2025-02-17 01:53:26 0.0002175483 475.0 (m) DEBRIS
CZ-6A DEB LEO 2025-01-25 14:48:40 0.000324117 493.0 (m) DEBRIS
CZ-6A DEB LEO 2025-01-02 04:36:00 0.0001306559 125.0 (m) DEBRIS
AEROCUBE 2 SSO 2024-12-05 15:59:21 0.0001018623 574.0 (m) PAYLOAD

Associated space launch

SPOT 1 is a French Earth observation satellite. Viking is Sweden's first satellite.

ARIANE 1 DEB was lifted into orbit during the mission ‘Ariane 1 | SPOT 1 & Viking’, on board a Ariane 1 space rocket.

The launch took place on Feb. 22, 1986, 1:44 a.m. from Ariane Launch Area 1 (ELV).

For more information about the launch, click the button.

Launch to space Ariane 1 | SPOT 1 & Viking
Ariane 1 | SPOT 1 & Viking

Agency: N/A

Status: Launch Successful

Launch date: Feb. 22, 1986, 1:44 a.m. UTC

Rocket: Ariane 1

Launch pad: Ariane Launch Area 1 (ELV)

Location: Guiana Space Centre, French Guiana

...

Latest news about this satellite

There are no fresh news available about this satellite. Check back as we update our databases every day.


Newsletter sign-up

Weekly statistics, charts and insights to help you stay on top of the space industry.